Regional Weather Roundup
Issued by NWS

Home | Current Version | Previous Version | Graphics & Text | Print | Product List | Glossary On
Versions: 1 2 3 4 5 6 7 8 9 10 11 12 13 14 15 16 17 18 19 20 21 22 23 24 25 26 27 28 29 30 31 32 33 34 35 36 37 38 39 40 41 42 43 44 45 46 47 48 49 50
000
ASUS43 KMPX 301301
RWRMN
WEATHER ROUNDUP FOR MINNESOTA
NATIONAL WEATHER SERVICE TWIN CITIES/CHANHASSEN MN
800 AM CDT TUE MAY 30 2017


NOTE: "FAIR" INDICATES FEW OR NO CLOUDS BELOW 12,000 FEET WITH NO
SIGNIFICANT WEATHER AND/OR OBSTRUCTIONS TO VISIBILITY. N/A MEANS
CURRENT SKY AND/OR WEATHER CONDITIONS ARE NOT AVAILABLE.

MNZ060>063-068>070-301400-
   Twin Cities Metro

CITY           SKY/WX    TMP DP  RH WIND       PRES   REMARKS
TWIN CITIES    CLOUDY    54  44  69 NW15      29.90S
ST PAUL        CLOUDY    54  45  71 W16G22    29.91R
CRYSTAL        CLOUDY    53  43  68 W13       29.89R
BLAINE         CLOUDY    54  45  71 NW12G18   29.90R
LAKEVILLE      CLOUDY    54  46  76 W8        29.91R
EDEN PRAIRIE   CLOUDY    55  46  71 W10       29.90R
SOUTH ST PAUL  CLOUDY    55  44  67 NW14G23   29.90R
LAKE ELMO      CLOUDY    52  46  82 W13       29.90R
$$
MNZ001>005-007-008-013>017-022>024-027-028-301400-
   Northwest Minnesota

CITY           SKY/WX    TMP DP  RH WIND       PRES   REMARKS
BEMIDJI        DRIZZLE   42  41  95 NW15      29.88S
HALLOCK        CLOUDY    46  43  87 NW15G21   29.93S
ROSEAU         CLOUDY    45  39  81 NW13G20   29.88R
WARROAD        CLOUDY    45  39  81 W9G18     29.87R
CROOKSTON      CLOUDY    45  45 100 N10       29.95S FOG
FOSSTON        DRIZZLE   43  41  93 NW10      29.92S
DETROIT LAKES  CLOUDY    45  43  93 NW13      29.94R
MOORHEAD       CLOUDY    46  43  87 NW14      29.97S
PARK RAPIDS    CLOUDY    45  40  82 NW13      29.89R
MAHNOMEN       CLOUDY    44  43  97 NW13      29.93R
$$
MNZ006-009>011-018-025>026-301400-
   North Central Minnesota

CITY           SKY/WX    TMP DP  RH WIND       PRES   REMARKS
BAUDETTE       CLOUDY    45  43  93 W13G23    29.84R
FLAG ISLAND    CLOUDY    45  43  93 NW21G26   29.83S
INTL FALLS     CLOUDY    46  44  93 W13       29.79R
WASKISH        CLOUDY    45  43  93 NW13G18   29.86R
BIG FORK       LGT RAIN  45  43  93 W5        29.83R
LONGVILLE      DRIZZLE   45  43  93 NW5       29.87R
GRAND RAPIDS   LGT RAIN  44  41  89 NW14      29.86R
CRANE LAKE     CLOUDY    45  43  93 W5        29.79S FOG
ORR            CLOUDY    43  41  93 W8        29.77R
COOK           CLOUDY    43  43 100 W8        29.80S FOG
WALKER         DRIZZLE   43  41  93 NW12G17   29.88R
$$
MNZ012-019>021-037-301400-
   Northeast Minnesota

CITY           SKY/WX    TMP DP  RH WIND       PRES   REMARKS
DULUTH         CLOUDY    46  42  86 NW13      29.80S
ELY            CLOUDY    45  43  93 W8        29.77R
HIBBING        CLOUDY    43  42  97 NW10      29.81R
EVELETH        LGT RAIN  44  40  86 W8        29.81R
DULUTH HARBOR  CLOUDY    48  45  87 W14       29.83R
TWO HARBORS    CLOUDY    48  43  81 W7        29.77R
SILVER BAY     CLOUDY    46  43  87 W5        29.75S
GRAND MARAIS     N/A     43  41  93 SW9       29.72R
G MARAIS ARPRT CLOUDY    45  39  81 W7        29.71R
$$
MNZ029>031-032-039>041-046>048-054>057-064-301400-
   West Central Minnesota

CITY           SKY/WX    TMP DP  RH WIND       PRES   REMARKS
FERGUS FALLS   CLOUDY    46  43  87 N9        29.95R
WHEATON        CLOUDY    50  43  76 W9        30.00R
MORRIS         CLOUDY    50  45  81 NW16      29.95S
ALEXANDRIA     CLOUDY    48  44  86 NW14      29.94R
ELBOW LAKE     CLOUDY    47  43  85 W13       29.96R
WADENA         CLOUDY    45  41  87 NW16      29.91R
GLENWOOD       CLOUDY    48  43  81 NW20      29.94R
APPLETON       CLOUDY    54  43  66 NW15      29.96R
BENSON         CLOUDY    52  45  76 N14       29.97R
ORTONVILLE     CLOUDY    50  43  76 NW14      29.98R
MADISON        SUNNY     54  45  71 NW15      29.98R
WILLMAR        FAIR      52  46  82 NW12      29.96R
$$
MNZ033>034-036-042>043-049>051-058-059-301400-
   Central Minnesota

CITY           SKY/WX    TMP DP  RH WIND       PRES   REMARKS
ST CLOUD       CLOUDY    50  43  77 NW13G21   29.90R
SAUK CENTRE    CLOUDY    49  42  77 NW18G25   29.92R
PAYNESVILLE    CLOUDY    50  43  78 NW14G20   29.94R
AITKIN         CLOUDY    45  41  87 W6        29.86R
PINE RIVER     DRIZZLE   45  41  87 NW9       29.92R
BRAINERD       CLOUDY    46  42  86 NW13      29.89R
STAPLES        CLOUDY    45  41  87 W12       29.90R
LONG PRAIRIE   CLOUDY    46  41  81 W13G18    29.92R
LITTLE FALLS   CLOUDY    46  39  76 NW12G18   29.91R
LITCHFIELD     CLOUDY    55  46  71 W18G25    29.93S
BUFFALO        CLOUDY    52  43  72 W10G18    29.92R
MAPLE LAKE     CLOUDY    52  45  77 W12G18    29.92R
HUTCHINSON     CLOUDY    54  46  74 W16G22    29.94S
$$
MNZ037-044-045-052-053-301400-
   East Central Minnesota

CITY           SKY/WX    TMP DP  RH WIND       PRES   REMARKS
PRINCETON      CLOUDY    52  43  71 W12       29.90R
MORA           CLOUDY    45  41  87 W8        29.89R
CAMBRIDGE      CLOUDY    52  41  66 W10G16    29.88R
RUSH CITY      CLOUDY    48  43  81 NW5       29.89R
MOOSE LAKE     CLOUDY    46  41  81 NW6       29.84S
HINCKLEY       CLOUDY    46  43  87 NW6       29.88R
CLOQUET        CLOUDY    46  39  76 W12       29.83R
MCGREGOR       CLOUDY    45  43  93 NW12      29.86R
$$
MNZ071>073-080-081-089-090-097-098-301400-
   Southwest Minnesota

CITY           SKY/WX    TMP DP  RH WIND       PRES   REMARKS
MONTEVIDEO     MOSUNNY   52  43  71 NW7       29.97R
CANBY          SUNNY     53  44  70 W15G23    30.00R
MARSHALL       SUNNY     54  43  66 NW16      29.98R
REDWOOD FALLS  CLOUDY    51  42  71 W10       29.96R
OLIVIA         CLOUDY    54  45  71 W10       29.95R
PIPESTONE      PTSUNNY   52  39  62 NW9       30.01R
WINDOM         MOSUNNY   55  45  67 W13       29.98S
WORTHINGTON    PTSUNNY   55  43  63 W13       30.00S
JACKSON        CLOUDY    55  43  62 W14       29.99S
TRACY          SUNNY     55  46  72 NW10      29.99R
SLAYTON        PTSUNNY   52  42  70 W12       30.00R
$$
MNZ065>067-074>077-082>085-091>093-301400-
   South Central Minnesota

CITY           SKY/WX    TMP DP  RH WIND       PRES   REMARKS
MANKATO        CLOUDY    52  45  77 W9        29.95S
NEW ULM        MOSUNNY   54  43  66 W13       29.95S
FAIRMONT       MOSUNNY   56  46  69 W12       29.98S
GLENCOE        CLOUDY    55  48  78 W13       29.92S
FARIBAULT      CLOUDY    54  46  76 SW12G17   29.93S
OWATONNA       PTSUNNY   54  45  71 SW10      29.94S
WASECA         CLOUDY    52  46  82 W12       29.96S
ALBERT LEA     CLOUDY    57  46  67 W6        29.96R
$$
MNZ078>079-086>088-094>096-301400-
   Southeast Minnesota

CITY           SKY/WX    TMP DP  RH WIND       PRES   REMARKS
ROCHESTER      MOSUNNY   55  46  71 W17       29.94S
RED WING       CLOUDY    55  45  67 W7        29.89S
STANTON        CLOUDY    55  46  72 W9        29.91R
DODGE CENTER   MOSUNNY   54  45  71 W13       29.93S
WINONA         CLOUDY    55  46  71 W7        29.91S
AUSTIN         PTSUNNY   54  45  71 W13       29.94S
PRESTON        SUNNY     54  46  74 W13       29.94S
$$
ABBREVIATIONS USED IN REMARKS
   TC - TEMPERATURES IN CELSIUS
  WCI - WIND CHILL INDEX
   HX - HEAT INDEX
  VSB - VISIBILITY
$$



USA.gov is the U.S. government's official web portal to all federal, state and local government web resources and services.